Location: New Town
(33.2710°N, 90.7534°W)
Time: 13:01:36
(UTC+00:00)

Explorer 11/Cluster Stage 4 - Pass Details

Date: 14 May 2021
Orbit: 467 x 1257 km, 28.8° (Epoch: 14 June)

Event Time Altitude Azimuth Distance (km) Brightness Sun altitude
Rises 01:43:40 0° 239° (WSW) 4,044 10.6 -9.9°
Reaches altitude 10° 01:46:33 10° 233° (SW) 3,146 10.0 -10.5°
Maximum altitude 01:54:11 47° 163° (SSE) 1,613 7.8 -11.8°
Enters shadow 02:01:27 12° 94° (E) 3,043 9.0 -13.1°
Drops below altitude 10° 02:01:52 10° 93° (E) 3,169 - -13.2°
Sets 02:04:47 0° 88° (E) 4,076 - -13.7°
